TimeCET,TemperatureF,Dew PointF,Humidity,Sea Level PressureIn,VisibilityMPH,Wind Direction,Wind SpeedMPH,Gust SpeedMPH,PrecipitationIn,Events,Conditions,WindDirDegrees,DateUTC
12:00 AM,60.8,42.8,52,29.98,6.2,South,4.6,-,N/A,,Unknown,170,2012-11-23 23:00:00
12:30 AM,60.8,42.8,52,29.98,6.2,South,3.5,-,N/A,,Unknown,190,2012-11-23 23:30:00
1:00 AM,60.8,42.8,52,29.98,6.2,South,5.8,-,N/A,,Unknown,190,2012-11-24 00:00:00
1:30 AM,62.6,41.0,45,29.95,6.2,South,5.8,-,N/A,,Unknown,180,2012-11-24 00:30:00
2:00 AM,62.6,42.8,48,29.95,6.2,Variable,9.2,-,N/A,,Unknown,0,2012-11-24 01:00:00
2:30 AM,62.6,41.0,45,29.92,6.2,Variable,10.4,-,N/A,,Unknown,0,2012-11-24 01:30:00
3:00 AM,62.6,41.0,45,29.92,6.2,South,8.1,-,N/A,,Unknown,170,2012-11-24 02:00:00
3:30 AM,60.8,41.0,48,29.92,6.2,SSE,6.9,-,N/A,,Unknown,150,2012-11-24 02:30:00
4:00 AM,62.6,41.0,45,29.92,6.2,SSE,9.2,-,N/A,,Unknown,160,2012-11-24 03:00:00
4:30 AM,62.6,41.0,45,29.89,6.2,SSE,10.4,-,N/A,,Unknown,160,2012-11-24 03:30:00
5:00 AM,62.6,41.0,45,29.89,6.2,Variable,8.1,-,N/A,,Unknown,0,2012-11-24 04:00:00
5:30 AM,62.6,41.0,45,29.89,6.2,Variable,6.9,-,N/A,,Unknown,0,2012-11-24 04:30:00
6:00 AM,62.6,41.0,45,29.89,-9999.0,South,9.2,-,N/A,,Clear,170,2012-11-24 05:00:00
6:30 AM,62.6,41.0,45,29.89,-9999.0,South,4.6,-,N/A,,Clear,180,2012-11-24 05:30:00
7:00 AM,62.6,41.0,45,29.89,-9999.0,South,6.9,-,N/A,,Clear,170,2012-11-24 06:00:00
7:30 AM,64.4,41.0,42,29.89,-9999.0,South,6.9,-,N/A,,Clear,170,2012-11-24 06:30:00
8:00 AM,64.4,41.0,42,29.86,-9999.0,South,12.7,-,N/A,,Clear,170,2012-11-24 07:00:00
8:30 AM,64.4,41.0,42,29.86,-9999.0,Variable,10.4,32.2,N/A,,Clear,0,2012-11-24 07:30:00
9:00 AM,64.4,41.0,42,29.86,-9999.0,Variable,10.4,-,N/A,,Clear,0,2012-11-24 08:00:00
9:30 AM,64.4,41.0,42,29.89,-9999.0,Variable,8.1,-,N/A,,Clear,0,2012-11-24 08:30:00
10:00 AM,64.4,41.0,42,29.89,-9999.0,South,12.7,29.9,N/A,,Clear,170,2012-11-24 09:00:00
10:30 AM,64.4,42.8,45,29.86,-9999.0,SSE,12.7,25.3,N/A,,Clear,160,2012-11-24 09:30:00
11:00 AM,64.4,41.0,42,29.86,-9999.0,South,12.7,24.2,N/A,,Clear,170,2012-11-24 10:00:00
11:30 AM,66.2,41.0,40,29.86,-9999.0,South,10.4,-,N/A,,Clear,170,2012-11-24 10:30:00
12:00 PM,66.2,41.0,40,29.86,-9999.0,SSE,6.9,-,N/A,,Clear,160,2012-11-24 11:00:00
12:30 PM,66.2,41.0,40,29.86,-9999.0,Variable,8.1,-,N/A,,Clear,0,2012-11-24 11:30:00
1:00 PM,66.2,41.0,40,29.86,-9999.0,South,5.8,-,N/A,,Clear,180,2012-11-24 12:00:00
1:30 PM,66.2,41.0,40,29.86,-9999.0,Variable,9.2,-,N/A,,Clear,0,2012-11-24 12:30:00
2:00 PM,66.2,41.0,40,29.86,-9999.0,South,6.9,-,N/A,,Clear,170,2012-11-24 13:00:00
2:30 PM,66.2,41.0,40,29.86,-9999.0,Variable,10.4,-,N/A,,Clear,0,2012-11-24 13:30:00
3:00 PM,64.4,42.8,45,29.83,-9999.0,Variable,16.1,29.9,N/A,,Clear,0,2012-11-24 14:00:00
3:30 PM,66.2,42.8,43,29.83,-9999.0,Variable,15.0,28.8,N/A,,Clear,0,2012-11-24 14:30:00
4:00 PM,66.2,42.8,43,29.83,-9999.0,SSW,12.7,-,N/A,,Clear,200,2012-11-24 15:00:00
4:30 PM,66.2,42.8,43,29.86,-9999.0,Variable,10.4,27.6,N/A,,Clear,0,2012-11-24 15:30:00
5:00 PM,64.4,42.8,45,29.89,-9999.0,SSW,8.1,-,N/A,,Clear,200,2012-11-24 16:00:00
6:00 PM,64.4,42.8,45,29.92,-9999.0,SSW,11.5,-,N/A,,Clear,200,2012-11-24 17:00:00
6:30 PM,64.4,42.8,45,29.95,6.2,Variable,10.4,-,N/A,,Unknown,0,2012-11-24 17:30:00
7:00 PM,64.4,42.8,45,29.95,6.2,SSW,5.8,19.6,N/A,,Unknown,200,2012-11-24 18:00:00
7:30 PM,59.0,53.6,82,30.01,6.2,WNW,15.0,27.6,N/A,,Scattered Clouds,290,2012-11-24 18:30:00
8:00 PM,59.0,53.6,82,30.04,6.2,West,9.2,-,N/A,,Scattered Clouds,260,2012-11-24 19:00:00
8:30 PM,59.0,51.8,77,30.04,6.2,West,9.2,-,N/A,,Overcast,270,2012-11-24 19:30:00
9:00 PM,59.0,51.8,77,30.06,6.2,West,11.5,-,N/A,,Overcast,270,2012-11-24 20:00:00
9:30 PM,59.0,53.6,82,30.06,6.2,West,11.5,-,N/A,,Overcast,280,2012-11-24 20:30:00
10:00 PM,59.0,51.8,77,30.09,6.2,West,11.5,-,N/A,,Overcast,270,2012-11-24 21:00:00
10:30 PM,59.0,51.8,77,30.09,6.2,West,13.8,-,N/A,,Overcast,280,2012-11-24 21:30:00
11:00 PM,59.0,51.8,77,30.09,6.2,West,10.4,-,N/A,Rain,Light Rain,260,2012-11-24 22:00:00
11:30 PM,59.0,51.8,77,30.12,6.2,West,11.5,-,N/A,Rain,Light Rain,280,2012-11-24 22:30:00